QPF
0.00 0.00 0.00 0.00 0.00 0.00 0.00 0.00 0.00 0.00 0.00 0.00 0.00 0.00 0.00 0.00 0.00 0.00 0.01 0.00 0.00 0.00 0.01 0.01 0.00 0.00 0.00 0.00 0.00 0.01 0.01 0.02 0.04 0.05 0.04 0.05 0.07 0.04 0.04 0.04 0.05 0.05 0.03 0.03
0.00 0.00 0.00 0.00 0.00 0.00 0.00 0.00 0.00 0.00 0.00 0.00 0.00 0.00 0.00 0.00 0.00 0.00 0.01 0.00 0.00 0.00 0.01 0.01 0.00 0.00 0.00 0.00 0.00 0.01 0.01 0.01 0.02 0.03 0.03 0.04 0.04 0.03 0.05 0.05 0.05 0.04 0.04 0.05
0.00 0.00 0.00 0.00 0.00 0.00 0.00 0.00 0.00 0.00 0.00 0.00 0.00 0.00 0.00 0.00 0.00 0.00 0.00 0.00 0.00 0.00 0.00 0.00 0.00 0.00 0.00 0.00 0.00 0.00 0.00 0.01 0.01 0.02 0.03 0.03 0.02 0.03 0.04 0.04 0.04 0.04 0.04 0.05
0.00 0.00 0.00 0.00 0.00 0.00 0.00 0.00 0.00 0.00 0.00 0.00 0.00 0.00 0.00 0.00 0.00 0.00 0.00 0.00 0.00 0.00 0.00 0.00 0.00 0.00 0.00 0.00 0.00 0.00 0.00 0.01 0.01 0.02 0.04 0.04 0.03 0.03 0.05 0.05 0.05 0.04 0.04 0.04
0.00 0.00 0.00 0.00 0.00 0.00 0.00 0.00 0.00 0.00 0.00 0.00 0.00 0.00 0.00 0.00 0.00 0.00 0.00 0.00 0.00 0.00 0.00 0.01 0.00 0.01 0.01 0.00 0.00 0.00 0.00 0.01 0.01 0.02 0.03 0.04 0.03 0.03 0.03 0.03 0.04 0.04 0.03 0.03
0.00 0.00 0.00 0.00 0.00 0.00 0.00 0.00 0.00 0.00 0.00 0.01 0.00 0.00 0.00 0.00 0.00 0.00 0.00 0.00 0.00 0.00 0.00 0.00 0.01 0.01 0.01 0.00 0.00 0.00 0.00 0.00 0.01 0.01 0.03 0.03 0.04 0.03 0.03 0.02 0.03 0.02 0.02 0.02
0.00 0.00 0.00 0.00 0.00 0.00 0.00 0.00 0.00 0.00 0.00 0.00 0.00 0.00 0.00 0.00 0.00 0.00 0.00 0.00 0.00 0.00 0.00 0.00 0.00 0.00 0.00 0.00 0.00 0.00 0.00 0.01 0.01 0.02 0.03 0.03 0.04 0.03 0.03 0.02 0.01 0.01 0.01 0.01
0.00 0.00 0.00 0.00 0.00 0.00 0.00 0.00 0.00 0.00 0.00 0.00 0.00 0.00 0.00 0.00 0.00 0.00 0.00 0.00 0.00 0.00 0.00 0.00 0.00 0.01 0.01 0.00 0.00 0.00 0.00 0.01 0.01 0.02 0.03 0.03 0.03 0.02 0.02 0.02 0.02 0.01 0.01 0.01
0.00 0.00 0.00 0.00 0.00 0.00 0.00 0.00 0.00 0.00 0.00 0.00 0.00 0.00 0.00 0.00 0.00 0.00 0.00 0.00 0.00 0.00 0.00 0.00 0.00 0.02 0.02 0.01 0.00 0.00 0.00 0.01 0.01 0.01 0.02 0.02 0.02 0.04 0.05 0.05 0.03 0.01 0.02 0.01
0.00 0.00 0.00 0.00 0.00 0.00 0.00 0.00 0.00 0.00 0.00 0.00 0.00 0.00 0.00 0.00 0.00 0.00 0.00 0.00 0.00 0.00 0.00 0.00 0.00 0.01 0.02 0.02 0.02 0.01 0.00 0.00 0.00 0.00 0.01 0.02 0.04 0.11 0.13 0.07 0.05 0.03 0.01 0.01
0.00 0.00 0.00 0.00 0.00 0.00 0.00 0.00 0.00 0.00 0.00 0.00 0.00 0.00 0.00 0.00 0.00 0.00 0.00 0.00 0.00 0.00 0.00 0.00 0.00 0.00 0.00 0.01 0.01 0.00 0.00 0.01 0.00 0.01 0.02 0.03 0.06 0.08 0.07 0.04 0.04 0.03 0.02 0.02
0.00 0.00 0.00 0.00 0.00 0.00 0.00 0.00 0.00 0.00 0.00 0.00 0.00 0.00 0.00 0.00 0.00 0.00 0.00 0.00 0.00 0.00 0.00 0.00 0.00 0.00 0.01 0.01 0.01 0.01 0.00 0.00 0.00 0.01 0.02 0.04 0.09 0.07 0.04 0.03 0.02 0.03 0.02 0.02
0.00 0.00 0.00 0.00 0.00 0.00 0.00 0.00 0.00 0.00 0.00 0.00 0.00 0.00 0.00 0.00 0.00 0.00 0.00 0.00 0.00 0.00 0.00 0.00 0.00 0.00 0.00 0.01 0.01 0.00 0.00 0.00 0.00 0.01 0.02 0.03 0.04 0.03 0.02 0.02 0.02 0.02 0.03 0.02
0.00 0.00 0.00 0.00 0.00 0.00 0.00 0.00 0.00 0.00 0.00 0.00 0.00 0.00 0.00 0.00 0.00 0.00 0.00 0.00 0.00 0.00 0.00 0.00 0.01 0.01 0.01 0.01 0.01 0.01 0.01 0.01 0.01 0.03 0.03 0.03 0.03 0.03 0.02 0.01 0.02 0.03 0.03 0.02
0.00 0.00 0.00 0.00 0.00 0.00 0.00 0.00 0.00 0.00 0.00 0.00 0.00 0.00 0.00 0.00 0.00 0.00 0.00 0.00 0.00 0.00 0.00 0.00 0.00 0.01 0.01 0.01 0.01 0.00 0.01 0.01 0.03 0.04 0.03 0.02 0.03 0.04 0.03 0.02 0.03 0.03 0.03 0.02
0.00 0.00 0.00 0.00 0.00 0.00 0.00 0.00 0.00 0.00 0.00 0.00 0.00 0.00 0.00 0.00 0.00 0.00 0.00 0.00 0.00 0.00 0.00 0.00 0.00 0.00 0.00 0.01 0.01 0.02 0.03 0.03 0.04 0.05 0.07 0.06 0.06 0.05 0.04 0.03 0.03 0.02 0.02 0.02
0.00 0.00 0.00 0.00 0.00 0.00 0.00 0.00 0.00 0.00 0.00 0.00 0.00 0.00 0.00 0.00 0.00 0.00 0.00 0.00 0.00 0.00 0.00 0.00 0.00 0.00 0.00 0.00 0.01 0.02 0.03 0.03 0.04 0.06 0.08 0.07 0.05 0.03 0.02 0.02 0.01 0.01 0.01 0.02
0.00 0.00 0.00 0.00 0.00 0.00 0.00 0.00 0.00 0.00 0.00 0.00 0.00 0.00 0.00 0.00 0.00 0.00 0.00 0.00 0.00 0.00 0.00 0.00 0.00 0.00 0.00 0.00 0.00 0.01 0.02 0.04 0.05 0.05 0.04 0.02 0.02 0.02 0.02 0.02 0.01 0.02 0.02 0.02
0.00 0.00 0.00 0.00 0.00 0.00 0.00 0.00 0.00 0.00 0.00 0.00 0.00 0.00 0.00 0.00 0.00 0.00 0.00 0.00 0.00 0.00 0.01 0.00 0.00 0.00 0.00 0.00 0.00 0.01 0.02 0.02 0.03 0.03 0.03 0.02 0.02 0.03 0.03 0.02 0.02 0.02 0.02 0.02
0.00 0.00 0.00 0.00 0.00 0.00 0.00 0.00 0.00 0.00 0.00 0.00 0.00 0.00 0.00 0.00 0.00 0.00 0.00 0.00 0.00 0.00 0.01 0.01 0.00 0.00 0.00 0.00 0.00 0.01 0.02 0.02 0.01 0.01 0.01 0.02 0.03 0.04 0.04 0.03 0.02 0.02 0.02 0.02
0.00 0.00 0.00 0.00 0.00 0.00 0.00 0.00 0.01 0.01 0.00 0.00 0.00 0.00 0.00 0.00 0.00 0.01 0.01 0.01 0.01 0.00 0.00 0.00 0.00 0.00 0.00 0.00 0.00 0.01 0.01 0.02 0.02 0.02 0.01 0.02 0.03 0.03 0.02 0.02 0.02 0.02 0.03 0.03
0.00 0.00 0.00 0.00 0.00 0.00 0.00 0.00 0.01 0.01 0.00 0.00 0.00 0.00 0.00 0.00 0.00 0.01 0.01 0.01 0.01 0.01 0.01 0.01 0.00 0.00 0.00 0.00 0.00 0.01 0.01 0.01 0.02 0.02 0.02 0.02 0.02 0.02 0.02 0.03 0.03 0.03 0.03 0.03
0.00 0.00 0.00 0.00 0.00 0.00 0.00 0.00 0.00 0.00 0.00 0.00 0.00 0.00 0.00 0.00 0.01 0.01 0.01 0.01 0.01 0.01 0.01 0.01 0.00 0.00 0.00 0.00 0.00 0.01 0.01 0.01 0.01 0.02 0.03 0.03 0.03 0.03 0.03 0.03 0.04 0.04 0.03 0.03
0.00 0.00 0.00 0.00 0.00 0.00 0.00 0.00 0.00 0.00 0.00 0.00 0.01 0.01 0.01 0.01 0.01 0.01 0.01 0.01 0.01 0.01 0.01 0.01 0.01 0.01 0.01 0.01 0.01 0.01 0.01 0.01 0.02 0.02 0.02 0.03 0.03 0.03 0.03 0.04 0.06 0.07 0.07 0.06
0.00 0.00 0.00 0.01 0.00 0.00 0.00 0.00 0.00 0.00 0.00 0.00 0.00 0.01 0.01 0.01 0.01 0.01 0.01 0.01 0.01 0.01 0.01 0.00 0.01 0.01 0.01 0.01 0.00 0.01 0.01 0.01 0.01 0.01 0.01 0.01 0.01 0.01 0.02 0.04 0.07 0.07 0.07 0.08
0.00 0.00 0.01 0.01 0.01 0.00 0.00 0.01 0.01 0.01 0.01 0.01 0.00 0.00 0.01 0.01 0.01 0.01 0.01 0.00 0.01 0.01 0.01 0.01 0.01 0.01 0.01 0.01 0.00 0.01 0.01 0.01 0.01 0.01 0.01 0.01 0.00 0.00 0.01 0.01 0.03 0.03 0.03 0.03
MSLP
1009.41 1010.13 1010.79 1011.36 1011.82 1012.18 1012.46 1012.68 1012.87 1013.02 1013.14 1013.22 1013.27 1013.29 1013.27 1013.24 1013.22 1013.23 1013.27 1013.35 1013.48 1013.65 1013.83 1014.03 1014.22 1014.41 1014.59 1014.78 1014.96 1015.14 1015.30 1015.43 1015.51 1015.54 1015.50 1015.40 1015.24 1015.05 1014.85 1014.67 1014.53 1014.44 1014.41 1014.42
1010.18 1010.73 1011.19 1011.56 1011.85 1012.08 1012.30 1012.51 1012.72 1012.91 1013.08 1013.19 1013.23 1013.20 1013.10 1012.97 1012.84 1012.76 1012.75 1012.82 1012.99 1013.22 1013.50 1013.79 1014.07 1014.32 1014.53 1014.72 1014.89 1015.04 1015.18 1015.31 1015.41 1015.48 1015.49 1015.43 1015.32 1015.16 1014.97 1014.78 1014.62 1014.51 1014.46 1014.48
1010.77 1011.15 1011.43 1011.63 1011.79 1011.94 1012.13 1012.36 1012.63 1012.90 1013.12 1013.25 1013.27 1013.17 1012.96 1012.70 1012.44 1012.25 1012.16 1012.22 1012.40 1012.70 1013.07 1013.46 1013.83 1014.15 1014.41 1014.60 1014.76 1014.88 1015.01 1015.14 1015.26 1015.37 1015.44 1015.46 1015.41 1015.29 1015.13 1014.95 1014.78 1014.65 1014.60 1014.62
1011.13 1011.37 1011.50 1011.58 1011.66 1011.79 1012.01 1012.31 1012.67 1013.02 1013.30 1013.45 1013.43 1013.24 1012.90 1012.47 1012.06 1011.72 1011.54 1011.55 1011.74 1012.09 1012.55 1013.03 1013.49 1013.88 1014.18 1014.39 1014.55 1014.66 1014.78 1014.91 1015.07 1015.22 1015.36 1015.45 1015.47 1015.42 1015.30 1015.15 1014.98 1014.85 1014.79 1014.80
1011.26 1011.39 1011.43 1011.44 1011.51 1011.67 1011.96 1012.37 1012.84 1013.29 1013.63 1013.78 1013.71 1013.40 1012.90 1012.30 1011.70 1011.21 1010.91 1010.85 1011.03 1011.41 1011.93 1012.51 1013.05 1013.51 1013.86 1014.11 1014.27 1014.38 1014.50 1014.65 1014.83 1015.04 1015.24 1015.41 1015.51 1015.52 1015.45 1015.33 1015.18 1015.05 1014.97 1014.97
1011.18 1011.24 1011.24 1011.26 1011.36 1011.60 1012.00 1012.54 1013.12 1013.66 1014.04 1014.19 1014.04 1013.62 1012.96 1012.17 1011.39 1010.73 1010.30 1010.15 1010.30 1010.70 1011.27 1011.91 1012.54 1013.07 1013.48 1013.76 1013.95 1014.08 1014.21 1014.37 1014.58 1014.83 1015.09 1015.32 1015.49 1015.56 1015.55 1015.45 1015.32 1015.18 1015.09 1015.07
1010.95 1010.98 1010.99 1011.05 1011.23 1011.58 1012.11 1012.76 1013.45 1014.06 1014.47 1014.59 1014.37 1013.83 1013.02 1012.06 1011.10 1010.29 1009.74 1009.50 1009.61 1010.00 1010.60 1011.30 1011.99 1012.60 1013.07 1013.41 1013.63 1013.79 1013.93 1014.11 1014.35 1014.63 1014.93 1015.20 1015.42 1015.54 1015.56 1015.49 1015.36 1015.22 1015.11 1015.07
1010.62 1010.66 1010.71 1010.84 1011.12 1011.58 1012.22 1012.97 1013.73 1014.39 1014.80 1014.88 1014.59 1013.95 1013.01 1011.92 1010.84 1009.90 1009.24 1008.94 1008.99 1009.37 1009.99 1010.73 1011.47 1012.15 1012.68 1013.08 1013.35 1013.55 1013.72 1013.92 1014.17 1014.47 1014.78 1015.08 1015.32 1015.47 1015.52 1015.46 1015.34 1015.19 1015.06 1014.99
1010.25 1010.32 1010.43 1010.65 1011.02 1011.58 1012.29 1013.10 1013.89 1014.55 1014.94 1014.98 1014.63 1013.90 1012.89 1011.72 1010.56 1009.56 1008.84 1008.48 1008.50 1008.86 1009.47 1010.23 1011.02 1011.75 1012.35 1012.80 1013.13 1013.38 1013.59 1013.81 1014.07 1014.37 1014.68 1014.99 1015.23 1015.39 1015.45 1015.40 1015.29 1015.14 1015.00 1014.90
1009.88 1010.00 1010.19 1010.48 1010.93 1011.54 1012.29 1013.10 1013.87 1014.47 1014.81 1014.80 1014.41 1013.65 1012.62 1011.44 1010.27 1009.25 1008.52 1008.13 1008.13 1008.47 1009.08 1009.84 1010.65 1011.41 1012.07 1012.58 1012.97 1013.27 1013.52 1013.77 1014.04 1014.34 1014.65 1014.94 1015.18 1015.34 1015.40 1015.37 1015.27 1015.13 1015.00 1014.90
1009.55 1009.74 1009.99 1010.35 1010.85 1011.47 1012.18 1012.94 1013.62 1014.15 1014.41 1014.35 1013.93 1013.19 1012.19 1011.07 1009.95 1008.99 1008.28 1007.91 1007.90 1008.22 1008.79 1009.54 1010.34 1011.12 1011.81 1012.38 1012.83 1013.19 1013.49 1013.77 1014.06 1014.36 1014.66 1014.95 1015.19 1015.35 1015.44 1015.44 1015.37 1015.26 1015.15 1015.07
1009.28 1009.55 1009.87 1010.28 1010.78 1011.36 1012.00 1012.64 1013.20 1013.61 1013.78 1013.66 1013.24 1012.55 1011.65 1010.63 1009.63 1008.77 1008.13 1007.80 1007.78 1008.06 1008.60 1009.29 1010.06 1010.83 1011.54 1012.15 1012.66 1013.08 1013.43 1013.76 1014.08 1014.39 1014.70 1014.99 1015.24 1015.44 1015.56 1015.61 1015.60 1015.56 1015.50 1015.45
1009.11 1009.45 1009.84 1010.27 1010.75 1011.26 1011.78 1012.27 1012.67 1012.93 1013.00 1012.84 1012.44 1011.83 1011.05 1010.20 1009.35 1008.62 1008.08 1007.79 1007.76 1008.00 1008.46 1009.07 1009.78 1010.51 1011.20 1011.83 1012.39 1012.87 1013.29 1013.67 1014.03 1014.38 1014.72 1015.04 1015.33 1015.57 1015.76 1015.88 1015.96 1016.01 1016.03 1016.04
1009.05 1009.47 1009.90 1010.34 1010.77 1011.19 1011.56 1011.88 1012.11 1012.22 1012.19 1011.99 1011.64 1011.13 1010.50 1009.82 1009.16 1008.57 1008.13 1007.88 1007.84 1008.00 1008.36 1008.87 1009.48 1010.13 1010.79 1011.42 1012.01 1012.54 1013.03 1013.48 1013.90 1014.30 1014.69 1015.06 1015.40 1015.71 1015.98 1016.22 1016.40 1016.56 1016.67 1016.77
1009.09 1009.57 1010.05 1010.48 1010.86 1011.16 1011.39 1011.54 1011.60 1011.57 1011.45 1011.24 1010.93 1010.54 1010.08 1009.59 1009.10 1008.66 1008.31 1008.09 1008.01 1008.10 1008.33 1008.71 1009.19 1009.74 1010.34 1010.94 1011.54 1012.12 1012.67 1013.19 1013.67 1014.14 1014.59 1015.02 1015.43 1015.83 1016.20 1016.54 1016.85 1017.12 1017.35 1017.53
1009.20 1009.74 1010.24 1010.67 1010.98 1011.18 1011.27 1011.27 1011.19 1011.05 1010.87 1010.65 1010.41 1010.14 1009.84 1009.53 1009.22 1008.91 1008.65 1008.44 1008.32 1008.30 1008.40 1008.62 1008.96 1009.39 1009.90 1010.47 1011.07 1011.67 1012.27 1012.84 1013.40 1013.93 1014.44 1014.93 1015.42 1015.90 1016.36 1016.82 1017.24 1017.62 1017.96 1018.23
1009.32 1009.91 1010.43 1010.83 1011.09 1011.21 1011.19 1011.07 1010.88 1010.67 1010.46 1010.27 1010.10 1009.96 1009.83 1009.68 1009.52 1009.34 1009.14 1008.94 1008.77 1008.65 1008.62 1008.69 1008.88 1009.18 1009.60 1010.11 1010.68 1011.29 1011.92 1012.54 1013.14 1013.72 1014.29 1014.84 1015.38 1015.93 1016.47 1017.01 1017.53 1018.01 1018.43 1018.78
1009.40 1010.00 1010.52 1010.90 1011.12 1011.18 1011.10 1010.91 1010.67 1010.43 1010.23 1010.09 1010.02 1010.01 1010.02 1010.03 1010.01 1009.93 1009.79 1009.61 1009.39 1009.19 1009.03 1008.97 1009.02 1009.21 1009.53 1009.97 1010.50 1011.10 1011.74 1012.38 1013.01 1013.62 1014.21 1014.79 1015.36 1015.95 1016.54 1017.13 1017.71 1018.25 1018.74 1019.15
1009.35 1009.95 1010.45 1010.82 1011.02 1011.05 1010.95 1010.75 1010.51 1010.29 1010.14 1010.08 1010.11 1010.23 1010.38 1010.53 1010.63 1010.65 1010.58 1010.41 1010.18 1009.91 1009.67 1009.51 1009.45 1009.54 1009.77 1010.14 1010.62 1011.19 1011.81 1012.44 1013.07 1013.68 1014.27 1014.84 1015.42 1016.01 1016.61 1017.22 1017.82 1018.40 1018.92 1019.36
1009.14 1009.71 1010.20 1010.55 1010.76 1010.80 1010.72 1010.55 1010.37 1010.22 1010.15 1010.18 1010.33 1010.56 1010.84 1011.11 1011.33 1011.44 1011.43 1011.30 1011.08 1010.80 1010.51 1010.28 1010.16 1010.17 1010.33 1010.64 1011.07 1011.59 1012.16 1012.76 1013.36 1013.94 1014.50 1015.05 1015.59 1016.15 1016.73 1017.32 1017.91 1018.49 1019.02 1019.48
1008.78 1009.31 1009.78 1010.13 1010.36 1010.45 1010.43 1010.34 1010.24 1010.19 1010.22 1010.36 1010.62 1010.96 1011.35 1011.72 1012.03 1012.23 1012.30 1012.23 1012.04 1011.78 1011.50 1011.25 1011.09 1011.06 1011.17 1011.42 1011.79 1012.25 1012.77 1013.32 1013.86 1014.38 1014.89 1015.39 1015.88 1016.39 1016.92 1017.47 1018.03 1018.58 1019.10 1019.55
1008.30 1008.80 1009.25 1009.62 1009.89 1010.04 1010.11 1010.13 1010.15 1010.21 1010.35 1010.60 1010.95 1011.38 1011.84 1012.30 1012.69 1012.97 1013.11 1013.11 1012.99 1012.78 1012.54 1012.32 1012.16 1012.11 1012.18 1012.39 1012.70 1013.10 1013.55 1014.02 1014.49 1014.95 1015.39 1015.82 1016.26 1016.71 1017.18 1017.68 1018.19 1018.70 1019.20 1019.64
1007.80 1008.27 1008.72 1009.12 1009.44 1009.69 1009.87 1010.00 1010.14 1010.31 1010.56 1010.89 1011.31 1011.79 1012.32 1012.82 1013.26 1013.60 1013.82 1013.90 1013.86 1013.73 1013.55 1013.38 1013.25 1013.20 1013.26 1013.42 1013.67 1013.99 1014.37 1014.76 1015.16 1015.54 1015.91 1016.28 1016.65 1017.04 1017.46 1017.91 1018.37 1018.85 1019.31 1019.75
1007.38 1007.84 1008.30 1008.74 1009.13 1009.47 1009.75 1010.00 1010.25 1010.52 1010.85 1011.24 1011.70 1012.21 1012.74 1013.27 1013.74 1014.12 1014.40 1014.55 1014.59 1014.55 1014.45 1014.34 1014.25 1014.22 1014.26 1014.38 1014.58 1014.83 1015.12 1015.43 1015.74 1016.05 1016.36 1016.67 1016.99 1017.33 1017.71 1018.11 1018.54 1018.98 1019.42 1019.84
1007.12 1007.58 1008.07 1008.55 1009.01 1009.43 1009.82 1010.17 1010.51 1010.85 1011.23 1011.65 1012.11 1012.62 1013.14 1013.65 1014.12 1014.53 1014.84 1015.05 1015.17 1015.21 1015.19 1015.15 1015.11 1015.09 1015.12 1015.20 1015.33 1015.50 1015.71 1015.94 1016.18 1016.42 1016.67 1016.93 1017.22 1017.52 1017.87 1018.24 1018.64 1019.06 1019.47 1019.88
1007.08 1007.55 1008.06 1008.59 1009.11 1009.60 1010.06 1010.49 1010.89 1011.28 1011.68 1012.10 1012.55 1013.02 1013.50 1013.97 1014.42 1014.83 1015.16 1015.42 1015.61 1015.72 1015.77 1015.78 1015.77 1015.77 1015.78 1015.82 1015.89 1015.99 1016.12 1016.26 1016.43 1016.61 1016.81 1017.04 1017.29 1017.58 1017.90 1018.25 1018.63 1019.03 1019.43 1019.82
Thickness
5844 5837 5831 5837 5843 5842 5837 5830 5825 5829 5838 5829 5823 5823 5826 5827 5822 5819 5816 5813 5810 5808 5810 5807 5804 5800 5796 5791 5787 5783 5780 5777 5775 5773 5772 5769 5769 5769 5769 5768 5765 5765 5765 5764
5827 5827 5842 5847 5844 5839 5834 5827 5827 5831 5835 5830 5826 5825 5833 5832 5827 5826 5822 5818 5816 5814 5811 5808 5805 5802 5798 5793 5789 5786 5782 5780 5778 5775 5774 5772 5771 5771 5770 5769 5766 5765 5765 5764
5822 5836 5844 5837 5832 5828 5829 5827 5827 5826 5829 5832 5827 5822 5828 5833 5833 5831 5829 5828 5825 5820 5815 5811 5807 5805 5802 5797 5793 5791 5786 5783 5780 5778 5777 5774 5771 5771 5770 5768 5767 5766 5765 5765
5826 5836 5833 5829 5828 5829 5822 5836 5833 5827 5821 5821 5823 5813 5825 5831 5828 5829 5830 5830 5829 5827 5823 5818 5814 5809 5806 5802 5800 5795 5789 5785 5782 5780 5778 5775 5771 5770 5769 5769 5768 5767 5765 5765
5818 5826 5824 5822 5830 5833 5831 5838 5833 5828 5824 5821 5823 5816 5826 5832 5824 5829 5833 5834 5835 5833 5829 5824 5820 5815 5812 5809 5804 5799 5793 5788 5785 5782 5779 5776 5774 5773 5772 5770 5767 5766 5766 5765
5823 5831 5831 5830 5836 5837 5833 5829 5825 5826 5825 5803 5817 5813 5817 5833 5831 5834 5837 5838 5837 5837 5833 5828 5825 5821 5815 5812 5807 5802 5795 5790 5787 5784 5781 5778 5775 5773 5771 5768 5767 5767 5768 5767
5804 5814 5826 5832 5821 5824 5825 5814 5799 5795 5798 5802 5820 5812 5821 5841 5845 5842 5840 5840 5841 5840 5836 5830 5825 5821 5816 5813 5809 5805 5798 5792 5789 5786 5783 5781 5777 5774 5771 5770 5769 5769 5769 5767
5790 5793 5813 5823 5821 5817 5820 5820 5798 5785 5790 5806 5811 5809 5831 5847 5849 5849 5847 5845 5844 5841 5838 5833 5829 5824 5820 5816 5812 5807 5801 5795 5792 5789 5785 5783 5780 5778 5777 5774 5773 5771 5771 5769
5796 5796 5815 5822 5828 5826 5814 5817 5831 5815 5806 5799 5809 5819 5834 5846 5843 5843 5843 5842 5841 5841 5840 5836 5832 5828 5824 5819 5814 5810 5803 5798 5795 5792 5787 5784 5781 5779 5778 5775 5773 5773 5770 5770
5803 5791 5804 5813 5818 5818 5824 5825 5815 5807 5785 5783 5798 5808 5818 5829 5834 5839 5839 5839 5840 5841 5840 5836 5833 5830 5827 5822 5817 5812 5807 5801 5797 5794 5790 5786 5783 5780 5778 5776 5773 5771 5769 5768
5803 5789 5792 5799 5798 5803 5805 5808 5810 5809 5807 5789 5787 5806 5838 5835 5838 5837 5839 5840 5841 5841 5839 5836 5833 5831 5828 5824 5819 5812 5807 5802 5798 5795 5791 5787 5783 5781 5778 5775 5773 5771 5768 5765
5793 5791 5784 5792 5806 5814 5811 5810 5807 5792 5789 5797 5798 5811 5843 5842 5843 5840 5839 5839 5840 5839 5838 5835 5832 5828 5825 5821 5818 5813 5808 5804 5800 5795 5791 5786 5783 5781 5778 5776 5773 5771 5767 5765
5783 5778 5765 5770 5782 5794 5798 5805 5811 5812 5806 5796 5793 5808 5835 5837 5837 5837 5836 5835 5834 5833 5832 5830 5828 5824 5821 5819 5816 5812 5809 5805 5802 5797 5791 5787 5782 5779 5776 5774 5772 5770 5767 5764
5778 5775 5771 5770 5781 5790 5787 5793 5800 5804 5794 5795 5800 5811 5823 5826 5827 5829 5830 5830 5831 5828 5826 5824 5822 5820 5817 5815 5813 5810 5807 5805 5801 5796 5791 5785 5781 5778 5776 5773 5771 5768 5766 5764
5770 5764 5772 5781 5789 5791 5788 5789 5792 5794 5800 5799 5805 5808 5816 5819 5823 5824 5825 5825 5823 5822 5820 5818 5817 5816 5813 5811 5809 5807 5805 5802 5799 5794 5790 5786 5782 5779 5777 5774 5770 5768 5766 5764
5758 5756 5761 5763 5775 5779 5778 5785 5788 5790 5795 5799 5802 5804 5816 5819 5820 5817 5818 5818 5816 5816 5816 5816 5814 5812 5809 5808 5806 5804 5802 5799 5796 5791 5788 5785 5782 5778 5776 5774 5770 5767 5764 5762
5748 5745 5746 5752 5763 5762 5759 5779 5783 5785 5792 5794 5793 5800 5808 5805 5805 5807 5810 5812 5812 5812 5812 5812 5811 5809 5807 5806 5805 5801 5800 5797 5792 5788 5785 5783 5780 5777 5774 5772 5768 5765 5762 5760
5733 5734 5741 5748 5743 5729 5769 5790 5789 5784 5787 5793 5794 5798 5800 5800 5803 5805 5807 5807 5805 5806 5807 5807 5807 5806 5806 5805 5803 5800 5797 5793 5789 5785 5782 5780 5777 5774 5771 5768 5765 5762 5759 5756
5729 5727 5733 5738 5734 5743 5760 5773 5778 5773 5772 5786 5786 5789 5793 5798 5797 5796 5800 5802 5801 5801 5802 5803 5804 5803 5802 5801 5800 5796 5792 5789 5785 5781 5779 5778 5775 5771 5768 5764 5761 5758 5755 5752
5719 5721 5725 5728 5726 5730 5755 5773 5779 5770 5758 5778 5780 5780 5783 5786 5782 5786 5792 5794 5794 5795 5796 5796 5798 5796 5794 5794 5794 5789 5786 5783 5780 5778 5776 5775 5772 5768 5765 5761 5758 5755 5751 5748
5704 5706 5713 5720 5722 5740 5756 5766 5765 5744 5753 5772 5775 5775 5776 5776 5778 5782 5785 5785 5786 5787 5788 5789 5789 5788 5787 5787 5785 5780 5778 5777 5777 5775 5772 5769 5766 5764 5761 5757 5753 5750 5746 5743
5705 5708 5708 5715 5714 5725 5749 5753 5748 5750 5761 5766 5766 5767 5767 5768 5770 5773 5774 5774 5776 5776 5778 5780 5779 5779 5779 5779 5776 5772 5771 5773 5770 5767 5765 5762 5760 5758 5756 5751 5747 5744 5741 5737
5704 5712 5720 5719 5722 5731 5741 5743 5746 5750 5750 5753 5756 5758 5758 5758 5760 5763 5763 5764 5765 5767 5768 5770 5770 5768 5768 5770 5769 5766 5766 5765 5762 5759 5758 5755 5753 5751 5749 5745 5741 5737 5734 5734
5695 5702 5707 5709 5716 5723 5729 5733 5736 5740 5741 5745 5748 5750 5750 5749 5751 5753 5753 5754 5755 5757 5759 5760 5760 5758 5758 5760 5760 5759 5759 5758 5754 5751 5749 5748 5745 5743 5741 5739 5736 5733 5730 5728
5688 5691 5695 5697 5705 5711 5716 5721 5725 5729 5732 5735 5738 5741 5742 5742 5742 5743 5744 5745 5746 5748 5750 5751 5750 5749 5749 5750 5750 5751 5751 5749 5746 5744 5742 5740 5739 5737 5733 5730 5728 5726 5725 5723
5678 5682 5685 5692 5699 5702 5705 5712 5716 5717 5719 5723 5726 5728 5731 5733 5733 5735 5736 5738 5739 5740 5741 5741 5742 5742 5741 5741 5740 5741 5741 5740 5737 5735 5733 5733 5732 5729 5727 5723 5719 5714 5714 5710